Weather History for Wenatchee, WA

Change the Weather History Date:

Sunday, December 16, 2012

  Actual Average Record
Temperature  
Mean Temperature 27 °F 25 °F  
Max Temperature 32 °F 31 °F 58 °F (1999)
Min Temperature 22 °F 20 °F -11 °F (1964)
Degree Days  
Heating Degree Days 38 40  
Month to date heating degree days 463 617  
Since 1 July heating degree days 1622 2499  
Cooling Degree Days 0 0  
Month to date cooling degree days 0 0  
Year to date cooling degree days 888 249  
Moisture  
Dew Point 27 °F    
Average Humidity 87    
Maximum Humidity 96    
Minimum Humidity 78    
Precipitation  
Precipitation 0.48 in 0.08 in 0.54 in (1961)
Month to date precipitation 0.87 1.33  
Year to date precipitation 8.38 15.88  
Snow  
Snow 0.00 in 0.50 in - ()
Month to date snowfall 7.9  
Since 1 July snowfall 15.8  
Snow Depth -    
Sea Level Pressure  
Sea Level Pressure 29.46 in    
Wind  
Wind Speed 2 mph (NNE)    
Max Wind Speed 9 mph    
Max Gust Speed 13 mph    
Visibility 4 miles    
Events Fog , Snow    
T = Trace of Precipitation, MM = Missing Value Source: NWS Daily Summary

Daily Weather History Graph

Daily Weather History Graph

Search for Another Location

Airport:

Trip Planner

Search our weather history database for the weather conditions in past years. The results will help you decide how hot, cold, wet, or windy it might be!

Date:

Astronomy

Dec. 16, 2012 Rise Set
Actual Time 7:42 AM PST 4:10 PM PST
Civil Twilight 7:06 AM PST 4:46 PM PST
Nautical Twilight 6:27 AM PST 5:25 PM PST
Astronomical Twilight 5:50 AM PST 6:03 PM PST
Moon 10:06 AM PST (12/16) 8:45 PM PST (12/16)
Length of Visible Light 9h 39m
Length of Day
8h 28m
Waxing Crescent, 17% of the Moon is Illuminated
Dec 16
Waxing Crescent
Dec 19
First Quarter
Dec 28
Full
Jan 4
Last Quarter
Jan 11
New

Hourly Weather History & Observations

Time (PST) Temp. Windchill Dew Point Humidity Pressure Visibility Wind Dir Wind Speed Gust Speed Precip Events Conditions
12:03 AM 28.4 °F 24.6 °F 24.8 °F 86% 29.61 in 10.0 mi NNW 3.5 mph - N/A   Mostly Cloudy
12:35 AM 28.4 °F 22.2 °F 24.8 °F 86% 29.62 in 10.0 mi North 5.8 mph - N/A   Overcast
12:55 AM 30.0 °F - 26.1 °F 85% 29.65 in 10.0 mi Calm Calm - N/A   Overcast
1:44 AM 26.6 °F 22.6 °F 23.0 °F 86% 29.62 in 10.0 mi WSW 3.5 mph - N/A   Scattered Clouds
1:55 AM 27.0 °F 23.0 °F 24.1 °F 89% 29.66 in 10.0 mi West 3.5 mph - N/A   Scattered Clouds
2:55 AM 28.0 °F 21.7 °F 23.0 °F 81% 29.69 in 10.0 mi West 5.8 mph - N/A   Clear
3:55 AM 25.0 °F - 21.9 °F 88% 29.71 in 10.0 mi Calm Calm - N/A   Clear
5:55 AM 23.0 °F 15.8 °F 21.0 °F 92% 29.73 in 10.0 mi East 5.8 mph - N/A   Partly Cloudy
6:55 AM 25.0 °F - 21.9 °F 88% 29.74 in 10.0 mi Calm Calm - N/A   Partly Cloudy
7:55 AM 25.0 °F - 23.0 °F 92% 29.75 in 10.0 mi Calm Calm - N/A   Overcast
8:55 AM 25.0 °F - 21.9 °F 88% 29.75 in 9.0 mi Calm Calm - N/A   Overcast
9:55 AM 25.0 °F 20.7 °F 21.9 °F 88% 29.75 in 10.0 mi NW 3.5 mph - N/A   Scattered Clouds
10:55 AM 28.0 °F - 25.0 °F 88% 29.74 in 9.0 mi Calm Calm - N/A   Overcast
11:55 AM 30.9 °F - 27.0 °F 85% 29.71 in 10.0 mi Calm Calm - N/A   Overcast
12:14 PM 28.4 °F 24.6 °F 26.6 °F 93% 29.67 in 9.0 mi WSW 3.5 mph - N/A   Mostly Cloudy
12:55 PM 30.0 °F - 27.0 °F 88% 29.68 in 10.0 mi Calm Calm - N/A   Mostly Cloudy
1:51 PM 30.2 °F - 26.6 °F 86% 29.60 in 10.0 mi Calm Calm - N/A   Overcast
2:55 PM 30.9 °F - 27.0 °F 85% 29.61 in 10.0 mi Calm Calm - N/A   Overcast
3:08 PM 30.2 °F - 26.6 °F 86% 29.56 in 5.0 mi Calm Calm - 0.00 in Snow Light Snow
3:17 PM 30.2 °F 26.7 °F 26.6 °F 86% 29.56 in 3.0 mi SSE 3.5 mph - 0.00 in Snow Light Snow
3:39 PM 30.2 °F - 26.6 °F 86% 29.54 in 1.8 mi Calm Calm - 0.00 in Snow Light Snow
3:55 PM 30.0 °F 25.2 °F 27.0 °F 88% 29.56 in 1.0 mi East 4.6 mph - 0.00 in Snow Light Snow
4:05 PM 30.2 °F 25.4 °F 26.6 °F 86% 29.51 in 1.0 mi East 4.6 mph - 0.01 in Snow Light Snow
4:13 PM 30.2 °F - 28.4 °F 93% 29.51 in 1.0 mi Calm Calm - 0.01 in Snow Light Snow
4:50 PM 30.2 °F 25.4 °F 28.4 °F 93% 29.47 in 0.8 mi ENE 4.6 mph - 0.02 in Snow Light Snow
4:55 PM 30.9 °F 27.5 °F 28.9 °F 92% 29.51 in 0.8 mi ENE 3.5 mph - 0.03 in Snow Light Snow
5:55 PM 30.9 °F - 27.0 °F 85% 29.47 in 0.5 mi Calm Calm - 0.08 in Fog , Snow Snow
6:03 PM 30.2 °F 25.4 °F 28.4 °F 93% 29.41 in 0.5 mi ENE 4.6 mph - 0.02 in Fog , Snow Snow
6:55 PM 30.0 °F 22.4 °F 28.9 °F 96% 29.37 in 0.8 mi East 8.1 mph - 0.10 in Snow Light Snow
7:08 PM 30.2 °F 23.4 °F 28.4 °F 93% 29.31 in 1.0 mi East 6.9 mph - 0.01 in Snow Light Snow
7:24 PM 30.2 °F 25.4 °F 28.4 °F 93% 29.30 in 1.2 mi SE 4.6 mph - 0.02 in Snow Light Snow
7:36 PM 30.2 °F - 28.4 °F 93% 29.29 in 0.8 mi Calm Calm - 0.03 in Snow Light Snow
7:55 PM 32.0 °F 27.5 °F 30.0 °F 92% 29.31 in 1.0 mi ESE 4.6 mph - 0.07 in Snow Light Snow
8:04 PM 30.2 °F 24.3 °F 28.4 °F 93% 29.26 in 0.8 mi North 5.8 mph - 0.02 in Snow Light Snow
8:43 PM 32.0 °F - 30.2 °F 93% 29.22 in 0.8 mi Calm Calm - 0.10 in Snow Light Snow
8:51 PM 32.0 °F 27.5 °F 30.2 °F 93% 29.23 in 1.0 mi WNW 4.6 mph - 0.11 in Snow Light Snow
8:55 PM 30.0 °F 23.2 °F 28.9 °F 96% 29.27 in 1.0 mi WNW 6.9 mph - 0.11 in Snow Light Snow
9:22 PM 30.2 °F - 28.4 °F 93% 29.23 in 0.8 mi Calm Calm - 0.04 in Snow Light Snow
9:55 PM 30.0 °F 25.2 °F 28.9 °F 96% 29.23 in 1.0 mi SW 4.6 mph - 0.08 in Snow Light Snow
10:22 PM 30.2 °F 26.7 °F 28.4 °F 93% 29.17 in 0.5 mi West 3.5 mph - 0.00 in Fog , Snow Light Snow
10:36 PM 30.2 °F - 28.4 °F 93% 29.17 in 0.2 mi Calm Calm - 0.00 in Fog , Snow Light Snow
10:51 PM 30.2 °F - 28.4 °F 93% 29.16 in 0.5 mi Calm Calm - 0.00 in Fog , Snow Light Snow
10:55 PM 30.0 °F - 28.9 °F 96% 29.19 in 0.5 mi Calm Calm - 0.00 in Fog , Snow Light Snow
11:08 PM 30.2 °F - 28.4 °F 93% 29.16 in 2.0 mi Calm Calm - 0.00 in Snow Light Snow
11:28 PM 30.2 °F 26.7 °F 28.4 °F 93% 29.15 in 3.0 mi South 3.5 mph - 0.01 in Snow Light Snow
11:43 PM 30.2 °F - 28.4 °F 93% 29.15 in 1.8 mi Calm Calm - 0.01 in   Overcast
11:55 PM 30.9 °F - 28.9 °F 92% 29.18 in 0.5 mi Calm Calm - 0.01 in Fog Light Freezing Fog